Погода в Злихе

Погода в Злихе : погода сейчас, прогноз погоды и архив. Всё, что Вы хотите узнать о погоде в Злихе!

Поиск расширенной информации на нашем сайте:

Другие новости

Новости СМИ2

Главная страница сайта

Новости сайта

03.07.2017

Напоминаем, что на нашем специализированном сайте Метеоцентр.Азия вы можете получить высокодетализированные автоматические прогнозы погоды по пунктам России, СНГ и мира в авиационном формате (включающие направление и скорость ветра, видимость, явления погоды, количество и форму облачности, нижнюю и верхнюю границу облачности).


Погода в Злихе - сегодня

Время (UTC), дата Ветер
(°,м/с) 
Видим.   Явления Облачность Т
(°С)
Тd
(°С)
f(%) Тe
(°С)
Pmin
(гПа)
dP
(гПа)
Po
(мм)
O2
(г/м3)
Тmin Tmax R s Состояние
почвы
09 15.06.18 тихо ()   20000 м    3/3 1000 м 
[Cu med, cong]
+30.3 -1.2 13 +30  1013.1  0.1  748  271           
12 15.06.18 тихо ()   20000 м    3/3 1000 м 
[Cu med, cong]
+31.7 -0.9 12 +32  1012.4  -0.4  748  270           
15 15.06.18 тихо ()   20000 м    ясно 
+29.6 +4.1 20 +30  1012.8  0.3  748  271    +33       
18 15.06.18 тихо ()   н/о    ясно 
+22.2 +6.7 37 +22  1014.1  0.9  749  278    +33       
21 15.06.18 тихо ()   н/о    ясно 
+17.8 +4.3 41 +18  1015  0.6  749  283           
00 16.06.18 160 (Ю) 20000 м    ясно 
+16.2 +5.1 48 +18  1014.5  -0.5  749  284           
06 16.06.18 тихо ()   20000 м    ясно 
+31.5 +4.5 18 +32  1013.1  -0.7  748  270  +16         
09 16.06.18 тихо ()   20000 м    ясно 
+33 -0.2 12 +33  1011.2  -1.8  747  268           
12 16.06.18 тихо ()   20000 м    ясно 
+33.9 +3.2 15 +34  1009.9  -1.3  746  267           
15 16.06.18 тихо ()   20000 м    ясно 
+30 +5.5 21 +30  1009  -1.1  745  270    +34.4       
18 16.06.18 тихо ()   н/о    ясно 
+22.6 +5.1 32 +23  1008.7  -0.6  745  276    +34.4       
21 16.06.18 тихо ()   н/о    ясно 
+18.7 +5.1 41 +19  1008.3  -0.5  744  280           
00 17.06.18 тихо ()   20000 м    ясно 
+17.6 +7.6 52 +18  1006.7  -1.7  743  280           
03 17.06.18 180 (Ю) 20000 м    ясно 
+27.4 +8.2 30 +27  1006  -0.2  743  271           
06 17.06.18 230 (ЮЗ) 20000 м    3/3 1000 м 
[Cu med, cong]
+32.5 +3.4 16 +33  1004.6  -1.1  742  267  +16.7         
09 17.06.18 200 (Ю) 20000 м    4/3 1000 м верхняя 
[Cu med, cong|Cc]
+35.2 +1.3 12 +35  1002.8  -1.6  741  264           
12 17.06.18 230 (ЮЗ) 20000 м    4/3 1000 м верхняя 
[Cu med, cong|Cc]
+35.7 +0.9 11 +36  1001.5  -1.3  740  263           
15 17.06.18 тихо ()   20000 м    5/5 1000 м 
[Cu med, cong]
+33 +3.8 16 +33  1000.8  -0.8  739  265    +36.6       
18 17.06.18 320 (СЗ) н/о    8/8 600 м кучево-дожд. 
[Cb cap]
+30.4 +7.8 24 +30  1001.7  0.5  740  267    +36.6       
21 17.06.18 тихо ()   н/о    3/0 средняя 
[Ac lent]
+27.8 +10 33 +29  999.9  -1.6  738  268           
00 18.06.18 тихо ()   20000 м    5/3 600 м кучево-дожд., средняя 
[Cb calv|Ac lent]
+20 +8.5 47 +20  999.8  -0.5  738  276           
03 18.06.18 290 (З) 20000 м    4/0 средняя 
[Ac cuf]
+24.6 +4.6 27 +25  1000.4  0.8  739  272           
06 18.06.18 290 (З) 20000 м    3/0 верхняя 
[Ci fib]
+29.4 +3.6 19 +29  1000.9  0.7  739  268  +18.6         
09 18.06.18 290 (З) 20000 м    3/0 средняя 
[Ac trans]
+30.2 -3.8 11 +30  1001.4  0.5  740  269           
12 18.06.18 270 (З) 20000 м    3/0 средняя 
[Ac trans]
+30.3 -2.5 12 +30  1002.1  0.7  740  269           
Время (UTC), дата Ветер
(°,м/с) 
Видим.   Явления Облачность Т
(°С)
Тd
(°С)
f(%) Тe
(°С)
Pmin
(гПа)
dP
(гПа)
Po
(мм)
O2
(г/м3)
Тmin Tmax R s Состояние
почвы

Для получения пояснительной информации подведите курсор к названию столбца.

ПОГОДА в Злихе - архив

Всё, что Вы хотите узнать о погоде в Злихе - удобно и подробно!

Выберите нужную дату (начиная с 1 января 2015* года) и нажмите кнопку "Найти".
Будут отображены архивные сводки погоды по пункту Злиха, начиная с указанной даты.


Отображать данные в формате CSV (для использования в таблицах Excel)


Внимание! Наш архив погоды предназначен исключительно для личного некоммерческого использования в познавательных целях. Если Вам необходимы официальные справки о состоянии погоды (для производственных, юридических, коммерческих и т.п. целей), обращайтесь в органы Росгидромета.

*Примечание: данная дата относится к архиву по метеостанциям СССР (Россия, СНГ, Балтия).
Архив по метеостанциям Зарубежной Европы и Азии (кроме Китая) хранится 10 дней, по другим регионам земного шара (Китай, Африка, Америка, Австралия, Океания) - 1 день.

Злиха - район местоположения метеостанции


Название, широта, долгота, высота метеостанции:
Злиха 45.2°ш. 67.1°д. 138 м над ур. моря [Казахстан]

Дополнительная информация

В oтличие oт бoльшинства пoгoдных сайтoв мы публикуем пoдрoбную метеoинфoрмацию в детальнoм прoфессиoнальнoм фoрмате.

Характеристики температуры и влажнoсти вoздуха измеряются на высoте 2 м в тени вдали oт зданий и деревьев.
Скoрoсть ветра измеряется на высoте 10 м (на урoвне рoста челoвека скoрoсть ветра ниже в 1.5-2 раза). Если метеoстанция нахoдится в гoрoде или в лесу, тo скoрoсть ветра занижена на 2-4 м/с пo сравнению с oткрытым местoм. Скoрoсть ветра над акватoриями крупных рек и oзёр, а также на вершинах хoлмoв на 2-5 м/с выше, чем в oбычных услoвиях.
Атмoсфернoе давление в разных тoчках местнoсти мoжет значительнo oтличаться oт давления на метеoстанции, в зависимoсти oт услoвий рельефа (при пoдъёме на 10 м давление пoнижается примернo на 1 мм рт.ст.).